Date String (YYYY-MM-DD hh:mm:ss) UTC,Instrument flags,Ambient pressure (hPa),Sample flow (lpm),Bypass flow (lpm),Sample temperature (°C),Ambient temperature (°C),ASC tube jacket temperature (°C),LED temperature (°C),Box temperature (°C),Sample RH (%),Span deviation,Mass concentration (μg/m³),Mass concentration (μg/m³),Mass concentration (μg/m³)
DateTimeUTC,F1_M11,P_M11,Q1_M11,Q2_M11,T1_M11,T2_M11,T3_M11,T4_M11,T5_M11,U1_M11,ZSPAN_M11,X0_M11,X2_M11,X1_M11
2021-08-21 04:00:00,,0827.7,4.99,0.00,29.5,28.3,00.0,38.6,31.4,18.9,0002.8,0023.49,0016.93,0016.20
2021-08-21 04:01:00,,0827.7,5.00,0.00,29.6,28.4,00.0,38.6,31.4,18.9,0002.8,0022.80,0016.90,0016.17
2021-08-21 04:02:00,,0827.7,5.01,0.00,29.6,28.5,00.0,38.7,31.4,18.9,0002.8,0022.68,0016.84,0016.11
2021-08-21 04:03:00,,0827.7,5.00,0.00,29.6,28.6,00.0,38.7,31.4,19.0,0002.7,0021.75,0016.75,0016.05
2021-08-21 04:04:00,,0827.7,5.00,0.00,29.6,28.6,00.0,38.7,31.5,19.1,0002.8,0021.80,0016.72,0016.04
2021-08-21 04:05:00,,0827.7,5.01,0.00,29.7,28.7,00.0,38.7,31.5,18.9,0002.8,0021.70,0016.66,0016.01
2021-08-21 04:06:00,,0827.7,5.00,0.00,29.7,28.8,00.0,38.7,31.5,19.2,0002.9,0021.58,0016.63,0015.97
2021-08-21 04:07:00,,0827.7,4.99,0.00,29.7,28.8,00.0,38.7,31.6,19.0,0002.9,0021.57,0016.64,0015.98
2021-08-21 04:08:00,,0827.7,5.00,0.00,29.8,28.9,00.0,38.8,31.6,18.8,0002.8,0021.49,0016.61,0015.95
2021-08-21 04:09:00,,0827.7,4.99,0.00,29.8,28.9,00.0,38.8,31.6,18.7,0002.8,0021.45,0016.57,0015.92
2021-08-21 04:10:00,,0827.7,5.00,0.00,29.8,28.9,00.0,38.8,31.6,18.7,0002.9,0021.47,0016.56,0015.90
2021-08-21 04:11:00,,0827.7,5.01,0.00,29.8,28.9,00.0,38.8,31.6,18.7,0002.8,0021.78,0016.51,0015.84
2021-08-21 04:12:00,,0827.7,5.00,0.00,29.8,29.0,00.0,38.8,31.7,19.0,0002.8,0021.84,0016.47,0015.80
2021-08-21 04:13:00,,0827.7,4.99,0.00,29.8,28.9,00.0,38.9,31.6,18.8,0002.7,0021.95,0016.43,0015.75
2021-08-21 04:14:00,,0827.7,5.00,0.00,29.8,27.2,00.0,38.8,31.2,19.1,0002.7,0022.57,0016.44,0015.72
2021-08-21 04:15:00,,0827.7,5.00,0.00,29.6,26.1,00.0,38.8,30.9,19.4,0002.7,0022.45,0016.40,0015.66
2021-08-21 04:16:00,,0827.7,5.00,0.00,29.5,26.2,00.0,38.8,30.9,19.3,0002.5,0022.28,0016.34,0015.61
2021-08-21 04:17:00,,0827.7,5.00,0.00,29.4,26.6,00.0,38.7,30.9,19.2,0002.5,0022.23,0016.25,0015.54
2021-08-21 04:18:00,,0827.7,5.00,0.00,29.4,27.0,00.0,38.7,31.0,19.0,0002.4,0022.10,0016.12,0015.42
2021-08-21 04:19:00,,0827.7,5.00,0.00,29.4,27.3,00.0,38.7,31.1,19.2,0002.2,0022.59,0016.03,0015.32
2021-08-21 04:20:00,,0827.7,4.98,0.00,29.4,27.6,00.0,38.6,31.1,19.5,0002.2,0022.93,0016.02,0015.29
2021-08-21 04:21:00,,0827.7,5.02,0.00,29.4,27.8,00.0,38.6,31.2,19.4,0002.2,0022.93,0016.06,0015.33
2021-08-21 04:22:00,,0827.7,5.00,0.00,29.4,28.0,00.0,38.6,31.2,19.4,0002.4,0022.58,0016.03,0015.33
2021-08-21 04:23:00,,0827.7,5.01,0.00,29.5,28.1,00.0,38.6,31.2,19.3,0002.5,0023.03,0016.07,0015.35
2021-08-21 04:24:00,,0827.7,5.00,0.00,29.5,28.3,00.0,38.6,31.3,19.4,0002.7,0023.65,0016.06,0015.35
2021-08-21 04:25:00,,0827.7,5.00,0.00,29.5,28.4,00.0,38.6,31.3,19.4,0002.8,0023.33,0016.06,0015.37
2021-08-21 04:26:00,,0827.7,5.00,0.00,29.5,28.5,00.0,38.6,31.4,19.3,0002.8,0024.31,0016.08,0015.39
2021-08-21 04:27:00,,0827.7,4.99,0.00,29.6,28.5,00.0,38.6,31.4,19.2,0002.8,0024.47,0016.11,0015.41
2021-08-21 04:28:00,,0827.7,5.00,0.00,29.6,28.6,00.0,38.7,31.5,19.1,0002.8,0024.60,0016.17,0015.45
2021-08-21 04:29:00,,0827.7,5.01,0.00,29.6,28.6,00.0,38.7,31.5,18.9,0002.8,0025.18,0016.22,0015.47
2021-08-21 04:30:00,,0827.7,5.00,0.00,29.7,28.7,00.0,38.7,31.5,18.8,0003.0,0025.35,0016.27,0015.51
2021-08-21 04:31:00,,0827.7,4.99,0.00,29.7,28.7,00.0,38.7,31.5,18.7,0002.9,0024.82,0016.23,0015.49
2021-08-21 04:32:00,,0827.7,5.00,0.00,29.7,28.7,00.0,38.7,31.5,18.7,0002.9,0024.98,0016.10,0015.38
2021-08-21 04:33:00,,0827.7,5.00,0.00,29.7,28.8,00.0,38.7,31.5,18.7,0002.7,0025.01,0016.04,0015.30
2021-08-21 04:34:00,,0827.7,4.99,0.00,29.7,28.8,00.0,38.8,31.5,18.7,0002.6,0024.51,0015.89,0015.19
2021-08-21 04:35:00,,0827.7,5.00,0.00,29.7,28.8,00.0,38.8,31.6,18.7,0002.5,0024.22,0015.82,0015.13
2021-08-21 04:36:00,,0827.7,5.00,0.00,29.7,28.8,00.0,38.8,31.6,18.7,0002.4,0024.52,0015.76,0015.07
2021-08-21 04:37:00,,0827.7,5.00,0.00,29.8,28.9,00.0,38.8,31.6,18.6,0002.4,0023.84,0015.70,0015.03
2021-08-21 04:38:00,,0827.7,4.98,0.00,29.8,28.9,00.0,38.8,31.6,18.6,0002.6,0023.59,0015.63,0014.97
2021-08-21 04:39:00,,0827.8,5.00,0.00,29.8,28.9,00.0,38.9,31.6,18.4,0002.8,0023.34,0015.53,0014.90
2021-08-21 04:40:00,,0827.7,5.01,0.00,29.8,28.9,00.0,38.9,31.6,18.4,0002.7,0022.71,0015.45,0014.84
2021-08-21 04:41:00,,0827.7,5.01,0.00,29.8,28.9,00.0,38.9,31.6,18.5,0002.7,0022.16,0015.38,0014.80
2021-08-21 04:42:00,,0827.7,4.99,0.00,29.8,29.0,00.0,38.9,31.6,18.4,0002.7,0022.23,0015.39,0014.80
2021-08-21 04:43:00,,0827.7,5.01,0.00,29.8,29.0,00.0,38.9,31.7,18.4,0002.9,0021.85,0015.37,0014.78
2021-08-21 04:44:00,,0827.7,5.01,0.00,29.9,28.8,00.0,38.9,31.6,18.4,0003.0,0022.23,0015.29,0014.75
2021-08-21 04:45:00,,0827.7,5.00,0.00,29.8,27.1,00.0,38.9,31.1,18.4,0002.9,0022.76,0015.32,0014.76
2021-08-21 04:46:00,,0827.7,5.00,0.00,29.6,26.1,00.0,38.8,30.8,18.7,0002.8,0022.33,0015.30,0014.74
2021-08-21 04:47:00,,0827.7,5.01,0.00,29.5,26.3,00.0,38.8,30.9,18.8,0002.8,0022.30,0015.28,0014.74
2021-08-21 04:48:00,,0827.8,4.98,0.00,29.4,26.7,00.0,38.8,30.9,18.8,0002.6,0021.79,0015.28,0014.72
2021-08-21 04:49:00,,0827.7,5.00,0.00,29.4,27.1,00.0,38.7,31.0,18.7,0002.6,0021.86,0015.28,0014.70
2021-08-21 04:50:00,,0827.7,4.99,0.00,29.4,27.4,00.0,38.7,31.1,18.7,0002.6,0021.91,0015.30,0014.69
2021-08-21 04:51:00,,0827.7,5.00,0.00,29.4,27.6,00.0,38.7,31.2,18.7,0002.5,0021.89,0015.32,0014.71
2021-08-21 04:52:00,,0827.7,4.99,0.00,29.4,27.9,00.0,38.7,31.2,18.7,0002.6,0021.90,0015.35,0014.73
2021-08-21 04:53:00,,0827.7,5.02,0.00,29.5,28.0,00.0,38.7,31.2,19.2,0002.5,0021.99,0015.40,0014.75
2021-08-21 04:54:00,,0827.7,4.99,0.00,29.5,28.2,00.0,38.7,31.3,19.0,0002.5,0022.49,0015.48,0014.80
2021-08-21 04:55:00,,0827.7,4.99,0.00,29.5,28.3,00.0,38.7,31.3,19.0,0002.4,0022.24,0015.51,0014.83
2021-08-21 04:56:00,,0827.7,5.00,0.00,29.6,28.4,00.0,38.7,31.4,18.8,0002.6,0021.62,0015.53,0014.86
2021-08-21 04:57:00,,0827.7,5.01,0.00,29.6,28.5,00.0,38.7,31.4,18.6,0002.6,0021.39,0015.59,0014.89
2021-08-21 04:58:00,,0827.7,4.99,0.00,29.6,28.6,00.0,38.7,31.4,18.4,0002.6,0020.82,0015.58,0014.89
2021-08-21 04:59:00,,0827.7,5.01,0.00,29.7,28.7,00.0,38.7,31.5,18.7,0002.7,0020.52,0015.57,0014.91
